TimeCET,TemperatureF,Dew PointF,Humidity,Sea Level PressureIn,VisibilityMPH,Wind Direction,Wind SpeedMPH,Gust SpeedMPH,PrecipitationIn,Events,Conditions,WindDirDegrees,DateUTC
12:00 AM,42.8,41.0,93,29.65,6.2,West,5.8,-,N/A,,Unknown,260,2013-01-13 23:00:00
12:30 AM,42.8,39.2,87,29.65,6.2,North,4.6,-,N/A,,Unknown,360,2013-01-13 23:30:00
1:00 AM,41.0,39.2,93,29.65,6.2,WNW,3.5,-,N/A,,Unknown,290,2013-01-14 00:00:00
1:30 AM,42.8,39.2,87,29.65,6.2,SSW,4.6,-,N/A,,Unknown,210,2013-01-14 00:30:00
2:00 AM,42.8,39.2,87,29.65,6.2,West,4.6,-,N/A,,Partly Cloudy,280,2013-01-14 01:00:00
2:30 AM,41.0,37.4,87,29.65,6.2,Variable,2.3,-,N/A,,Scattered Clouds,0,2013-01-14 01:30:00
3:00 AM,41.0,39.2,93,29.68,6.2,WNW,5.8,-,N/A,,Mostly Cloudy,300,2013-01-14 02:00:00
3:30 AM,41.0,37.4,87,29.65,6.2,West,6.9,-,N/A,,Unknown,280,2013-01-14 02:30:00
4:00 AM,41.0,37.4,87,29.65,6.2,West,5.8,-,N/A,,Partly Cloudy,260,2013-01-14 03:00:00
4:30 AM,41.0,37.4,87,29.65,6.2,West,5.8,-,N/A,,Unknown,270,2013-01-14 03:30:00
5:00 AM,41.0,37.4,87,29.65,6.2,West,6.9,-,N/A,,Unknown,270,2013-01-14 04:00:00
5:30 AM,41.0,37.4,87,29.65,6.2,West,6.9,-,N/A,,Partly Cloudy,270,2013-01-14 04:30:00
6:00 AM,39.2,35.6,87,29.68,6.2,NNW,3.5,-,N/A,,Scattered Clouds,340,2013-01-14 05:00:00
6:30 AM,39.2,37.4,93,29.68,6.2,West,4.6,-,N/A,,Unknown,280,2013-01-14 05:30:00
7:00 AM,39.2,37.4,93,29.71,6.2,West,6.9,-,N/A,,Unknown,270,2013-01-14 06:00:00
7:30 AM,41.0,37.4,87,29.71,6.2,West,6.9,-,N/A,,Unknown,280,2013-01-14 06:30:00
8:00 AM,41.0,37.4,87,29.71,6.2,West,6.9,-,N/A,,Unknown,280,2013-01-14 07:00:00
8:30 AM,41.0,37.4,87,29.74,6.2,West,5.8,-,N/A,,Unknown,270,2013-01-14 07:30:00
9:00 AM,42.8,39.2,87,29.74,6.2,West,6.9,-,N/A,,Unknown,270,2013-01-14 08:00:00
9:30 AM,46.4,41.0,81,29.77,6.2,West,4.6,-,N/A,,Unknown,260,2013-01-14 08:30:00
10:00 AM,48.2,42.8,82,29.77,6.2,Variable,3.5,-,N/A,,Unknown,0,2013-01-14 09:00:00
10:30 AM,50.0,41.0,71,29.77,6.2,South,4.6,-,N/A,,Unknown,170,2013-01-14 09:30:00
11:00 AM,51.8,41.0,67,29.77,6.2,South,6.9,-,N/A,,Unknown,170,2013-01-14 10:00:00
11:30 AM,51.8,42.8,71,29.77,6.2,South,8.1,-,N/A,,Scattered Clouds,170,2013-01-14 10:30:00
12:00 PM,53.6,42.8,67,29.77,6.2,SSE,8.1,-,N/A,,Mostly Cloudy,150,2013-01-14 11:00:00
12:30 PM,53.6,41.0,62,29.74,6.2,SSE,5.8,-,N/A,,Mostly Cloudy,150,2013-01-14 11:30:00
1:30 PM,53.6,39.2,58,29.74,6.2,Calm,Calm,-,N/A,,Mostly Cloudy,0,2013-01-14 12:30:00
2:00 PM,53.6,33.8,47,29.74,6.2,WNW,5.8,-,N/A,,Partly Cloudy,300,2013-01-14 13:00:00
2:30 PM,53.6,33.8,47,29.74,6.2,NW,10.4,-,N/A,,Unknown,320,2013-01-14 13:30:00
3:00 PM,53.6,28.4,38,29.74,6.2,WNW,13.8,-,N/A,,Unknown,290,2013-01-14 14:00:00
3:30 PM,53.6,30.2,41,29.74,6.2,West,12.7,27.6,N/A,,Mostly Cloudy,280,2013-01-14 14:30:00
4:00 PM,51.8,28.4,41,29.74,6.2,West,12.7,-,N/A,,Unknown,280,2013-01-14 15:00:00
4:30 PM,51.8,28.4,41,29.74,6.2,West,9.2,-,N/A,,Partly Cloudy,260,2013-01-14 15:30:00
5:00 PM,51.8,26.6,38,29.74,6.2,West,11.5,-,N/A,,Unknown,270,2013-01-14 16:00:00
5:30 PM,50.0,28.4,43,29.74,6.2,West,9.2,-,N/A,,Overcast,280,2013-01-14 16:30:00
6:00 PM,46.4,33.8,62,29.77,6.2,West,12.7,-,N/A,,Mostly Cloudy,270,2013-01-14 17:00:00
6:30 PM,44.6,35.6,71,29.80,6.2,West,10.4,-,N/A,,Mostly Cloudy,270,2013-01-14 17:30:00
7:00 PM,44.6,33.8,66,29.80,6.2,West,6.9,-,N/A,,Unknown,270,2013-01-14 18:00:00
7:30 PM,44.6,32.0,61,29.80,6.2,WSW,8.1,-,N/A,,Partly Cloudy,250,2013-01-14 18:30:00
8:00 PM,44.6,33.8,66,29.80,6.2,SSW,6.9,-,N/A,,Partly Cloudy,210,2013-01-14 19:00:00
8:30 PM,42.8,33.8,70,29.80,6.2,WNW,4.6,-,N/A,,Scattered Clouds,300,2013-01-14 19:30:00
9:00 PM,44.6,35.6,71,29.80,6.2,Variable,5.8,-,N/A,Rain,Light Rain,0,2013-01-14 20:00:00
9:30 PM,42.8,33.8,70,29.80,6.2,South,11.5,-,N/A,,Partly Cloudy,190,2013-01-14 20:30:00
10:00 PM,44.6,32.0,61,29.77,6.2,Variable,5.8,-,N/A,,Mostly Cloudy,0,2013-01-14 21:00:00
10:30 PM,48.2,30.2,50,29.80,6.2,Variable,4.6,-,N/A,,Mostly Cloudy,0,2013-01-14 21:30:00
11:00 PM,48.2,30.2,50,29.80,6.2,NNW,4.6,-,N/A,,Mostly Cloudy,330,2013-01-14 22:00:00
11:30 PM,46.4,37.4,71,29.83,6.2,West,13.8,28.8,N/A,Rain,Rain,270,2013-01-14 22:30:00